Newton, KS

2:50 AM CST on February 20, 2018 (GMT -0600)
Newton City County

Weather History for KEWK - February, 2013

Change the Weather History Date:

Sunday, February 3, 2013

  Actual Average Record
Temperature  
Mean Temperature 42 °F -  
Max Temperature 55 °F 39 °F 57 °F (1999)
Min Temperature 30 °F 22 °F -2 °F (2011)
Degree Days  
Heating Degree Days 22    
Moisture  
Dew Point 22 °F    
Average Humidity 46    
Maximum Humidity 64    
Minimum Humidity 25    
Precipitation  
Precipitation 0.00 in - - ()
Sea Level Pressure  
Sea Level Pressure 30.12 in    
Wind  
Wind Speed 11 mph (South)    
Max Wind Speed 22 mph    
Max Gust Speed 29 mph    
Visibility 10 miles    
Events      
Averages and records for this station are not official NWS values.
T = Trace of Precipitation, MM = Missing Value Source: NWS Daily Summary

Daily Weather History Graph

Daily Weather History Graph

Search for Another Location

Airport or City:

Trip Planner

Search our weather history database for the weather conditions in past years. The results will help you decide how hot, cold, wet, or windy it might be!

Date:

Astronomy

Feb. 03, 2013 Rise Set
Actual Time 7:31 AM CST 5:54 PM CST
Civil Twilight 7:04 AM CST 6:22 PM CST
Nautical Twilight 6:32 AM CST 6:53 PM CST
Astronomical Twilight 6:01 AM CST 7:24 PM CST
Moon 1:00 AM CST (2/3) 11:33 AM CST (2/3)
Length of Visible Light 11h 18m
Length of Day
10h 23m
Waning Gibbous, 48% of the Moon is Illuminated
Feb 3
Waning Gibbous
Feb 10
New
Feb 17
First Quarter
Feb 25
Full
Mar 4
Last Quarter

Hourly Weather History & Observations

Time (CST) Temp. Windchill Dew Point Humidity Pressure Visibility Wind Dir Wind Speed Gust Speed Precip Events Conditions
12:15 AM 35.6 °F 28.6 °F 21.2 °F 56% - 10.0 mi WNW 9.2 mph - N/A   Clear
12:35 AM 35.6 °F 28.6 °F 21.2 °F 56% 30.25 in 10.0 mi WNW 9.2 mph - N/A   Clear
12:55 AM 35.6 °F 29.2 °F 21.2 °F 56% 30.26 in 10.0 mi West 8.1 mph - N/A   Clear
1:15 AM 35.6 °F 28.0 °F 21.2 °F 56% 30.26 in 10.0 mi WNW 10.4 mph - N/A   Clear
1:35 AM 35.6 °F 28.0 °F 21.2 °F 56% 30.26 in 10.0 mi WNW 10.4 mph - N/A   Clear
1:55 AM 35.6 °F 29.2 °F 21.2 °F 56% 30.27 in 10.0 mi West 8.1 mph - N/A   Clear
2:15 AM 33.8 °F 26.4 °F 19.4 °F 56% 30.27 in 10.0 mi WNW 9.2 mph - N/A   Clear
2:35 AM 33.8 °F 24.8 °F 21.2 °F 60% 30.27 in 10.0 mi WNW 12.7 mph - N/A   Clear
2:55 AM 33.8 °F 24.8 °F 21.2 °F 60% 30.26 in 10.0 mi NW 12.7 mph - N/A   Clear
3:15 AM 35.6 °F 27.5 °F 21.2 °F 56% 30.26 in 10.0 mi NNW 11.5 mph - N/A   Clear
3:35 AM 35.6 °F 28.6 °F 21.2 °F 56% 30.26 in 10.0 mi NNW 9.2 mph - N/A   Clear
3:55 AM 33.8 °F 27.7 °F 21.2 °F 60% 30.27 in 10.0 mi NNW 6.9 mph - N/A   Clear
4:15 AM 30.2 °F 23.4 °F 19.4 °F 64% 30.26 in 10.0 mi North 6.9 mph - N/A   Clear
4:35 AM 30.2 °F 22.6 °F 19.4 °F 64% 30.26 in 10.0 mi North 8.1 mph - N/A   Clear
4:55 AM 30.2 °F 21.9 °F 19.4 °F 64% 30.26 in 10.0 mi North 9.2 mph - N/A   Clear
5:15 AM 30.2 °F 21.9 °F 19.4 °F 64% 30.27 in 10.0 mi North 9.2 mph - N/A   Clear
5:35 AM 32.0 °F 23.6 °F 21.2 °F 64% 30.27 in 10.0 mi North 10.4 mph - N/A   Clear
5:55 AM 32.0 °F 25.6 °F 21.2 °F 64% 30.27 in 10.0 mi North 6.9 mph - N/A   Clear
6:15 AM 30.2 °F 22.6 °F 19.4 °F 64% 30.27 in 10.0 mi NNE 8.1 mph - N/A   Clear
6:35 AM 33.8 °F 26.4 °F 21.2 °F 60% 30.27 in 10.0 mi NE 9.2 mph - N/A   Clear
6:55 AM 32.0 °F 25.6 °F 21.2 °F 64% 30.27 in 10.0 mi NE 6.9 mph - N/A   Clear
7:15 AM 32.0 °F 25.6 °F 21.2 °F 64% 30.27 in 10.0 mi NE 6.9 mph - N/A   Clear
7:35 AM 30.2 °F 25.4 °F 19.4 °F 64% 30.28 in 10.0 mi NE 4.6 mph - N/A   Clear
7:55 AM 32.0 °F 28.7 °F 19.4 °F 60% 30.28 in 10.0 mi ENE 3.5 mph - N/A   Clear
8:15 AM 30.2 °F - 19.4 °F 64% 30.28 in 10.0 mi Calm Calm - N/A   Clear
8:35 AM 33.8 °F - 21.2 °F 60% 30.28 in 10.0 mi Calm Calm - N/A   Clear
8:55 AM 35.6 °F 31.7 °F 23.0 °F 60% 30.27 in 10.0 mi ENE 4.6 mph - N/A   Clear
9:15 AM 37.4 °F 32.8 °F 23.0 °F 56% 30.27 in 10.0 mi ENE 5.8 mph - N/A   Clear
9:35 AM 37.4 °F 32.8 °F 24.8 °F 60% 30.27 in 10.0 mi East 5.8 mph - N/A   Clear
9:55 AM 39.2 °F 34.2 °F 24.8 °F 56% 30.26 in 10.0 mi ESE 6.9 mph - N/A   Clear
10:15 AM 39.2 °F 34.2 °F 24.8 °F 56% 30.26 in 10.0 mi ESE 6.9 mph - N/A   Clear
10:35 AM 41.0 °F 36.4 °F 24.8 °F 53% 30.26 in 10.0 mi SE 6.9 mph - N/A   Clear
10:55 AM 42.8 °F 37.5 °F 23.0 °F 46% 30.25 in 10.0 mi SE 9.2 mph - N/A   Clear
11:15 AM 42.8 °F 37.5 °F 23.0 °F 46% 30.23 in 10.0 mi SE 9.2 mph - N/A   Clear
11:35 AM 44.6 °F 39.7 °F 23.0 °F 43% 30.22 in 10.0 mi SE 9.2 mph - N/A   Clear
11:55 AM 46.4 °F 41.5 °F 21.2 °F 37% 30.21 in 10.0 mi SE 10.4 mph - N/A   Clear
12:15 PM 48.2 °F - 21.2 °F 34% 30.20 in 10.0 mi SSE 9.2 mph - N/A   Clear
12:35 PM 48.2 °F - 19.4 °F 32% 30.18 in 10.0 mi SSE 11.5 mph - N/A   Clear
12:55 PM 50.0 °F - 19.4 °F 30% 30.16 in 10.0 mi SSE 13.8 mph - N/A   Clear
1:15 PM 51.8 °F - 19.4 °F 28% 30.14 in 10.0 mi SSE 15.0 mph - N/A   Clear
1:35 PM 53.6 °F - 21.2 °F 28% 30.12 in 10.0 mi South 13.8 mph 20.7 mph N/A   Clear
1:55 PM 53.6 °F - 21.2 °F 28% 30.11 in 10.0 mi South 15.0 mph 19.6 mph N/A   Clear
2:15 PM 53.6 °F - 21.2 °F 28% 30.09 in 10.0 mi South 17.3 mph - N/A   Clear
2:35 PM 53.6 °F - 19.4 °F 26% 30.07 in 10.0 mi South 19.6 mph - N/A   Clear
2:55 PM 55.4 °F - 21.2 °F 26% 30.06 in 10.0 mi South 17.3 mph 24.2 mph N/A   Clear
3:15 PM 55.4 °F - 21.2 °F 26% 30.05 in 10.0 mi South 17.3 mph 23.0 mph N/A   Clear
3:35 PM 55.4 °F - 21.2 °F 26% 30.03 in 10.0 mi South 19.6 mph 26.5 mph N/A   Clear
3:55 PM 55.4 °F - 21.2 °F 26% 30.03 in 10.0 mi South 19.6 mph 23.0 mph N/A   Clear
4:15 PM 55.4 °F - 19.4 °F 25% 30.02 in 10.0 mi SSW 21.9 mph 26.5 mph N/A   Clear
4:35 PM 53.6 °F - 21.2 °F 28% 30.01 in 10.0 mi South 21.9 mph 28.8 mph N/A   Clear
4:55 PM 53.6 °F - 21.2 °F 28% 30.00 in 10.0 mi South 18.4 mph 24.2 mph N/A   Clear
5:15 PM 51.8 °F - 21.2 °F 30% 29.99 in 10.0 mi South 17.3 mph 23.0 mph N/A   Clear
5:35 PM 51.8 °F - 21.2 °F 30% 29.98 in 10.0 mi South 16.1 mph 21.9 mph N/A   Clear
5:55 PM 48.2 °F - 21.2 °F 34% 29.97 in 10.0 mi South 13.8 mph - N/A   Clear
6:15 PM 48.2 °F - 21.2 °F 34% 29.96 in 10.0 mi South 12.7 mph - N/A   Clear
6:35 PM 48.2 °F - 21.2 °F 34% 29.95 in 10.0 mi South 13.8 mph - N/A   Clear
6:55 PM 48.2 °F - 21.2 °F 34% 29.95 in 10.0 mi South 12.7 mph - N/A   Clear
7:15 PM 48.2 °F - 21.2 °F 34% 29.95 in 10.0 mi South 12.7 mph - N/A   Clear
7:35 PM 46.4 °F 40.7 °F 21.2 °F 37% 29.94 in 10.0 mi South 12.7 mph - N/A   Clear
7:55 PM 46.4 °F 40.1 °F 23.0 °F 40% 29.93 in 10.0 mi South 15.0 mph - N/A   Clear
8:15 PM 46.4 °F 40.1 °F 23.0 °F 40% 29.92 in 10.0 mi South 15.0 mph - N/A   Clear
8:35 PM 46.4 °F 40.1 °F 23.0 °F 40% 29.91 in 10.0 mi South 15.0 mph - N/A   Clear
8:55 PM 46.4 °F 40.1 °F 24.8 °F 43% 29.90 in 10.0 mi South 15.0 mph - N/A   Clear
9:15 PM 46.4 °F 39.5 °F 24.8 °F 43% 29.89 in 10.0 mi South 17.3 mph 20.7 mph N/A   Clear
9:35 PM 48.2 °F - 24.8 °F 40% 29.89 in 10.0 mi South 20.7 mph - N/A   Clear
9:55 PM 48.2 °F - 24.8 °F 40% 29.88 in 10.0 mi South 20.7 mph 26.5 mph N/A   Clear
10:15 PM 48.2 °F - 24.8 °F 40% 29.88 in 10.0 mi South 19.6 mph - N/A   Clear
10:35 PM 48.2 °F - 24.8 °F 40% 29.87 in 10.0 mi South 19.6 mph 25.3 mph N/A   Clear
10:55 PM 48.2 °F - 24.8 °F 40% 29.87 in 10.0 mi South 17.3 mph 24.2 mph N/A   Clear
11:15 PM 48.2 °F - 26.6 °F 43% 29.86 in 10.0 mi South 16.1 mph 24.2 mph N/A   Clear
11:35 PM 48.2 °F - 26.6 °F 43% 29.85 in 10.0 mi South 15.0 mph 23.0 mph N/A   Clear
11:55 PM 48.2 °F - 26.6 °F 43% 29.84 in 10.0 mi South 18.4 mph 28.8 mph N/A   Clear